Location: Newark
(52.2583°N, 7.1190°W)
Time: 23:18:41
(UTC+00:00)

N. Korean satellite - Pass Details

Date: 22 October 2019
Orbit: 456 x 506 km, 97.2° (Epoch: 12 November)

Event Time Altitude Azimuth Distance (km) Brightness Sun altitude
Rises 05:28:43 0° 27° (NNE) 2,562 10.6 -15.4°
Reaches altitude 10° 05:31:21 10° 48° (NE) 1,686 10.0 -15.0°
Maximum altitude 05:33:49 17° 91° (E) 1,298 9.9 -14.6°
Drops below altitude 10° 05:36:18 10° 134° (SE) 1,694 10.0 -14.3°
Sets 05:38:57 0° 155° (SSE) 2,579 10.6 -13.8°
